Location: Newark
(37.9800°N, 91.3000°W)
Time: 08:02:30
(UTC+00:00)

N. Korean satellite - Pass Details

Date: 26 October 2019
Orbit: 456 x 506 km, 97.2° (Epoch: 21 November)

Event Time Altitude Azimuth Distance (km) Brightness Sun altitude
Rises 11:40:57 0° 17° (NNE) 2,584 10.4 -9.2°
Reaches altitude 10° 11:43:04 10° 22° (NNE) 1,704 9.5 -8.8°
Maximum altitude 11:46:40 52° 100° (E) 633 7.7 -8.1°
Drops below altitude 10° 11:50:15 10° 177° (S) 1,708 9.5 -7.4°
Sets 11:52:23 0° 182° (S) 2,590 10.4 -7.0°
